CT1AKV-10 Estrada Real PT current weather conditions

sailwx.info

Wind from 320 at 4 knots gusting 11

Air temperature 14.4° C
Dewpoint -16.8° C

Last reported at 2017-Jan-23 15:44 UTC.
Time now 2017-Jan-23 16:55 UTC

Location: N 39°11' W 008°44'.
View on Google Maps.

See reports from other nearby stations

  
Tides and Currents Weather Stations Pressure Air Temp Water Temp Dewpoint Dewpoint Depression Visibility Wind Speed Wind Dir Waves Ship Positions
date/time (UTC)wind fromknots sea level pressurealtimeterstation pressurevisibilityair tempwater tempwave heightnotes
2017-Jan-23 15:44 320 4 gusting 11 14.4
2017-Jan-23 15:29 358 4 gusting 9 15.6
2017-Jan-23 15:14 329 5 gusting 14 16.7
2017-Jan-23 14:59 343 5 gusting 13 16.7
2017-Jan-23 14:44 343 3 gusting 9 18.3
2017-Jan-23 14:29 328 4 gusting 11 18.3
2017-Jan-23 14:14 337 3 gusting 10 18.9
2017-Jan-23 13:59 013 2 gusting 7 19.4
2017-Jan-23 13:44 340 1 gusting 4 20.0
2017-Jan-23 13:29 334 1 gusting 6 20.0
2017-Jan-23 13:14 330 1 gusting 4 20.6
2017-Jan-23 12:59 327 0 gusting 4 20.0
2017-Jan-23 12:44 335 2 gusting 6 19.4
2017-Jan-23 12:29 350 1 gusting 4 19.4
2017-Jan-23 12:14 359 2 gusting 6 17.8
2017-Jan-23 11:59 345 1 gusting 5 17.2
2017-Jan-23 11:44 326 1 gusting 5 16.1
2017-Jan-23 11:29 004 1 gusting 6 15.0
2017-Jan-23 11:14 337 1 gusting 5 15.0
2017-Jan-23 10:59 344 1 gusting 5 15.0
2017-Jan-23 10:44 009 0 gusting 4 15.0
2017-Jan-23 10:29 344 0 gusting 2 13.9
2017-Jan-23 10:14 001 1 gusting 3 11.1
2017-Jan-23 09:59 352 0 gusting 2 9.4
2017-Jan-23 09:44 336 1 gusting 4 6.7
2017-Jan-23 09:29 315 1 gusting 4 5.0
2017-Jan-23 09:14 319 1 gusting 4 4.4
2017-Jan-23 08:59 317 1 gusting 3 3.9
2017-Jan-23 08:44 323 0 gusting 3 3.3
2017-Jan-23 08:29 338 0 gusting 3 2.8
2017-Jan-23 08:14 2.2
2017-Jan-23 07:59 2.2
2017-Jan-23 07:44 013 0 gusting 3 2.8
2017-Jan-23 07:29 058 0 gusting 2 2.8
2017-Jan-23 07:14 063 2.2
2017-Jan-23 06:59 2.2
2017-Jan-23 06:44 2.2
2017-Jan-23 06:29 2.2
2017-Jan-23 06:14 2.2
2017-Jan-23 05:59 2.2
2017-Jan-23 05:44 2.8
2017-Jan-23 05:29 3.3
2017-Jan-23 05:14 349 3.9
2017-Jan-23 04:59 295 3.9
2017-Jan-23 04:44 306 4.4
2017-Jan-23 04:29 312 0 gusting 3 4.4
2017-Jan-23 04:14 316 4.4
2017-Jan-23 03:59 322 0 gusting 2 5.6
2017-Jan-23 03:44 319 0 gusting 3 5.6
2017-Jan-23 03:29 311 0 gusting 2 5.6
2017-Jan-23 03:14 320 0 gusting 3 5.6
2017-Jan-23 02:59 337 1 gusting 4 6.1
2017-Jan-23 02:44 310 1 gusting 4 6.1
2017-Jan-23 02:29 316 1 gusting 4 6.1
2017-Jan-23 02:14 336 1 gusting 5 6.1
2017-Jan-23 01:59 326 1 gusting 4 6.1
2017-Jan-23 01:44 353 0 gusting 4 6.1
2017-Jan-23 01:29 333 1 gusting 5 6.7
2017-Jan-23 01:14 324 2 gusting 6 7.2
2017-Jan-23 00:59 323 3 gusting 9 7.2
2017-Jan-23 00:44 323 3 gusting 8 7.2
2017-Jan-23 00:30 318 2 gusting 6 7.2
2017-Jan-23 00:14 340 1 gusting 5 7.2
2017-Jan-23 00:00 322 2 gusting 7 7.2
2017-Jan-22 23:45 316 3 gusting 7 7.8
2017-Jan-22 23:30 317 2 gusting 6 7.2
2017-Jan-22 23:15 295 2 gusting 6 7.2
2017-Jan-22 23:00 321 2 gusting 6 7.2
2017-Jan-22 22:45 330 1 gusting 6 6.7
2017-Jan-22 22:30 316 1 gusting 4 6.1
2017-Jan-22 22:15 307 0 gusting 3 6.1
2017-Jan-22 22:00 301 1 gusting 4 6.7
2017-Jan-22 21:45 305 1 gusting 5 6.7
2017-Jan-22 21:30 303 1 gusting 6 7.2
2017-Jan-22 21:15 301 1 gusting 4 7.2
2017-Jan-22 21:00 301 1 gusting 4 7.2
2017-Jan-22 20:45 307 2 gusting 6 7.8
2017-Jan-22 20:30 313 3 gusting 6 7.8
2017-Jan-22 20:15 317 3 gusting 7 7.8
2017-Jan-22 20:00 308 3 gusting 7 8.3
2017-Jan-22 19:45 310 3 gusting 6 8.3
2017-Jan-22 19:30 325 4 gusting 7 8.3
2017-Jan-22 19:15 312 3 gusting 6 8.3
2017-Jan-22 19:00 309 3 gusting 8 8.9
2017-Jan-22 18:45 309 3 gusting 8 8.9
2017-Jan-22 18:30 314 3 gusting 7 9.4
2017-Jan-22 18:15 312 3 gusting 6 9.4
2017-Jan-22 18:00 307 4 gusting 9 10.0
2017-Jan-22 17:45 318 5 gusting 9 10.6
2017-Jan-22 17:30 319 4 gusting 11 11.1
2017-Jan-22 17:15 318 4 gusting 9 11.7
2017-Jan-22 17:00 325 4 gusting 11 12.2
2017-Jan-22 16:45 310 4 gusting 9 12.2
2017-Jan-22 16:30 325 4 gusting 9 12.8
2017-Jan-22 16:15 327 3 gusting 8 13.3
2017-Jan-22 16:00 336 3 gusting 9 13.9
2017-Jan-22 15:45 329 2 gusting 6 13.9
2017-Jan-22 15:30 336 4 gusting 8 13.9
2017-Jan-22 15:15 338 2 gusting 6 15.0
2017-Jan-22 15:00 342 2 gusting 6 13.3
2017-Jan-22 14:45 341 2 gusting 9 12.8
2017-Jan-22 14:30 313 2 gusting 6 12.8
2017-Jan-22 14:15 312 2 gusting 6 13.3
2017-Jan-22 14:00 329 3 gusting 7 13.3
2017-Jan-22 13:45 327 3 gusting 6 13.9
2017-Jan-22 13:30 314 4 gusting 11 15.0
2017-Jan-22 13:15 289 3 gusting 11 16.7
2017-Jan-22 13:00 311 4 gusting 9 16.1
2017-Jan-22 12:45 340 4 gusting 11 15.0
2017-Jan-22 12:30 316 4 gusting 9 15.0
2017-Jan-22 12:15 336 3 gusting 9 15.6
2017-Jan-22 12:00 327 1 gusting 6 15.6
2017-Jan-22 11:45 330 2 gusting 6 15.6
2017-Jan-22 11:30 321 1 gusting 6 16.1
2017-Jan-22 11:15 328 0 gusting 4 16.1
2017-Jan-22 11:00 354 0 gusting 2 15.0
2017-Jan-22 10:45 332 0 gusting 2 13.9
2017-Jan-22 10:30 308 0 gusting 3 12.8
2017-Jan-22 02:30 3.3
2017-Jan-22 02:15 3.3
2017-Jan-22 02:00 019 3.3
2017-Jan-22 01:45 355 3.9
2017-Jan-22 01:30 4.4
2017-Jan-22 01:15 3.9
2017-Jan-22 01:00 3.9
2017-Jan-22 00:45 3.9
2017-Jan-22 00:30 3.9
2017-Jan-22 00:15 4.4
2017-Jan-22 00:00 4.4
2017-Jan-21 23:45 3.9
2017-Jan-21 23:30 4.4
2017-Jan-21 23:15 205 5.0
2017-Jan-21 23:00 304 0 gusting 3 5.0
2017-Jan-21 22:45 311 0 gusting 2 5.6
2017-Jan-21 22:30 281 0 gusting 3 6.1
2017-Jan-21 22:15 290 1 gusting 5 6.7
2017-Jan-21 22:00 304 1 gusting 4 6.7
2017-Jan-21 21:45 307 1 gusting 4 6.1
2017-Jan-21 21:30 318 1 gusting 6 6.7
2017-Jan-21 21:15 297 0 gusting 5 6.1
2017-Jan-21 21:00 295 0 gusting 1 6.7
2017-Jan-21 20:45 291 0 gusting 3 7.2
2017-Jan-21 20:30 277 1 gusting 5 7.2
2017-Jan-21 20:15 279 0 gusting 4 7.2
2017-Jan-21 20:00 306 1 gusting 5 7.8
2017-Jan-21 19:44 283 1 gusting 6 7.8
2017-Jan-21 19:29 305 1 gusting 6 7.8
2017-Jan-21 19:14 306 1 gusting 6 8.3
2017-Jan-21 18:59 301 1 gusting 6 8.3
2017-Jan-21 18:44 289 1 gusting 5 8.9
2017-Jan-21 18:29 305 2 gusting 6 9.4
2017-Jan-21 18:14 321 1 gusting 5 9.4
2017-Jan-21 17:59 294 1 gusting 3 10.0
2017-Jan-21 17:44 318 1 gusting 4 11.1
2017-Jan-21 17:29 318 2 gusting 6 11.7
2017-Jan-21 17:14 301 3 gusting 9 12.2
2017-Jan-21 16:59 299 3 gusting 7 12.8
2017-Jan-21 16:44 298 3 gusting 9 13.3
2017-Jan-21 16:29 309 2 gusting 6 13.9
2017-Jan-21 16:14 320 2 gusting 7 14.4